This is the latest recevied weather packets stored in our database for station/object WA2TQI. If no packets are shown the sender has not sent any weather packets the latest 10 day(s).
| Time | Temp. | Humidity | Pressure | Rain* | Wind** | Luminosity | Snow |
|---|---|---|---|---|---|---|---|
| 1778257562 | 18.33° C | 46% | 1014.3 hPa | 0 mm | - | - | - |
| 1778257259 | 18.89° C | 44% | 1014.3 hPa | 0 mm | - | - | - |
| 1778256956 | 18.33° C | 45% | 1014.3 hPa | 0 mm | - | - | - |
| 1778256654 | 17.78° C | 46% | 1014.7 hPa | 0 mm | - | - | - |
| 1778256352 | 18.33° C | 45% | 1014.6 hPa | 0 mm | - | - | - |
| 1778256049 | 17.78° C | 48% | 1014.7 hPa | 0 mm | - | - | - |
| 1778255746 | 17.78° C | 47% | 1014.7 hPa | 0 mm | - | - | - |
| 1778255443 | 18.33° C | 44% | 1014.8 hPa | 0 mm | - | - | - |
| 1778255140 | 18.33° C | 45% | 1014.7 hPa | 0 mm | - | - | - |
| 1778254837 | 17.22° C | 47% | 1014.8 hPa | 0 mm | - | - | - |
| 1778254533 | 17.78° C | 45% | 1014.9 hPa | 0 mm | - | - | - |
| 1778254230 | 18.33° C | 44% | 1015 hPa | 0 mm | - | - | - |
| 1778253927 | 17.78° C | 45% | 1014.9 hPa | 0 mm | - | - | - |
| 1778253622 | 17.78° C | 45% | 1014.9 hPa | 0 mm | - | - | - |
| 1778253319 | 16.67° C | 45% | 1015.1 hPa | 0 mm | - | - | - |
| 1778253016 | 17.22° C | 45% | 1015.1 hPa | 0 mm | - | - | - |
| 1778252713 | 17.78° C | 48% | 1015.2 hPa | 0 mm | - | - | - |
| 1778252409 | 16.67° C | 45% | 1015 hPa | 0 mm | - | - | - |
| 1778252106 | 17.22° C | 45% | 1014.9 hPa | 0 mm | - | - | - |
| 1778251802 | 16.67° C | 49% | 1015 hPa | 0 mm | - | - | - |
| 1778251500 | 17.22° C | 47% | 1015 hPa | 0 mm | - | - | - |
| 1778251197 | 16.11° C | 48% | 1015.2 hPa | 0 mm | - | - | - |
| 1778250895 | 16.67° C | 49% | 1015.3 hPa | 0 mm | - | - | - |
| 1778250591 | 16.67° C | 49% | 1015.1 hPa | 0 mm | - | - | - |
| 1778250288 | 16.11° C | 49% | 1015.3 hPa | 0 mm | - | - | - |
* Rain latest hour (hover to see other rain measurements)
** Current wind speed in m/s (hover to see current wind gust speed)